DW9852 Weather Reports


time (UTC)temp
F
wind
direction
speed
knots
gust
knots
rain 1hr
in
rain 24hr
in
rain mn
in
humidity
%
barometer
mb
20260507001039 73 13 2.6 4.3 0.00 0.00 0.00 75 1013.0
20260507000544 73 1 0.0 7.0 0.00 0.00 0.00 75 1012.8
20260507000058 74 7 1.7 7.0 0.00 0.00 0.00 75 1012.7
20260506235541 74 17 2.6 9.6 0.00 0.00 0.00 74 1012.5
20260506235039 75 44 1.7 9.6 0.00 0.00 0.00 74 1012.4
20260506234548 75 356 3.5 9.6 0.00 0.00 0.00 72 1012.4
20260506234039 76 19 1.7 5.2 0.00 0.00 0.00 73 1012.1
20260506233540 77 13 1.7 5.2 0.00 0.00 0.00 73 1012.1
20260506233052 77 27 0.0 5.2 0.00 0.00 0.00 73 1012.1
20260506232539 77 11 2.6 5.2 0.00 0.00 0.00 74 1011.9
20260506232037 78 16 1.7 5.2 0.00 0.00 0.00 73 1011.9
20260506231544 78 15 2.6 5.2 0.00 0.00 0.00 72 1011.8
20260506231038 79 14 2.6 5.2 0.00 0.00 0.00 72 1011.7
20260506230541 79 11 0.0 6.1 0.00 0.00 0.00 73 1011.6
20260506230052 79 356 1.7 6.1 0.00 0.00 0.00 72 1011.5
20260506225540 79 13 1.7 6.1 0.00 0.00 0.00 73 1011.5
20260506225040 79 3 2.6 6.1 0.00 0.00 0.00 73 1011.6
20260506224548 80 13 2.6 4.3 0.00 0.00 0.00 72 1011.4
20260506224039 80 3 2.6 6.1 0.00 0.00 0.00 71 1011.3
20260506223538 81 10 1.7 6.1 0.00 0.00 0.00 71 1011.4
20260506223042 81 358 1.7 7.0 0.00 0.00 0.00 71 1011.2
20260506222539 82 15 1.7 7.0 0.00 0.00 0.00 72 1011.1
20260506222041 82 11 2.6 6.1 0.00 0.00 0.00 73 1011.0
20260506221547 82 20 2.6 6.1 0.00 0.00 0.00 73 1011.0
20260506221038 82 24 1.7 6.1 0.00 0.00 0.00 73 1011.0
20260506220540 82 27 2.6 6.1 0.00 0.00 0.00 73 1010.8
20260506220059 83 14 1.7 4.3 0.00 0.00 0.00 73 1010.9
20260506215541 83 13 1.7 5.2 0.00 0.00 0.00 72 1010.9
20260506215041 84 6 1.7 5.2 0.00 0.00 0.00 70 1010.7
20260506214552 85 0 0.0 5.2 0.00 0.00 0.00 68 1010.8
20260506214040 86 39 1.7 5.2 0.00 0.00 0.00 67 1010.6
20260506213539 87 49 0.0 4.3 0.00 0.00 0.00 68 1010.8
20260506213055 87 0 0.0 4.3 0.00 0.00 0.00 68 1010.7
20260506212540 87 24 0.0 7.8 0.00 0.00 0.00 67 1010.7
20260506212041 87 0 2.6 7.8 0.00 0.00 0.00 67 1010.8
20260506211547 87 41 0.9 4.3 0.00 0.00 0.00 67 1010.7
20260506211039 88 49 0.0 2.6 0.00 0.00 0.00 64 1010.8
20260506210542 88 79 0.9 3.5 0.00 0.00 0.00 66 1010.8
20260506210100 88 190 0.9 7.0 0.00 0.00 0.00 67 1010.8
20260506205539 88 171 1.7 7.0 0.00 0.00 0.00 65 1011.0
20260506205041 88 32 1.7 7.0 0.00 0.00 0.00 66 1011.1
20260506204550 88 0 0.0 3.5 0.00 0.00 0.00 64 1010.8
20260506204039 87 0 0.0 5.2 0.00 0.00 0.00 64 1010.8
20260506203540 88 18 1.7 5.2 0.00 0.00 0.00 66 1011.0
20260506203121 87 0 2.6 5.2 0.00 0.00 0.00 68 1011.0
20260506202540 88 53 0.9 4.3 0.00 0.00 0.00 66 1011.1
20260506202040 88 37 1.7 5.2 0.00 0.00 0.00 67 1011.2
20260506201549 88 0 1.7 5.2 0.00 0.00 0.00 66 1011.2
20260506201039 88 0 0.0 0.0 0.00 0.00 0.00 69 1011.3
20260506200539 86 0 0.0 0.0 0.00 0.00 0.00 67 1011.5
20260506200051 86 0 0.0 3.5 0.00 0.00 0.00 70 1011.6
20260506195538 85 0 0.0 4.3 0.00 0.00 0.00 71 1011.7
20260506195039 85 65 0.9 4.3 0.00 0.00 0.00 71 1011.8
20260506194549 86 0 0.0 0.9 0.00 0.00 0.00 72 1011.5
20260506194040 86 0 0.0 2.6 0.00 0.00 0.00 71 1011.5
20260506193540 86 0 0.0 2.6 0.00 0.00 0.00 72 1011.7
20260506193045 86 37 0.0 4.3 0.00 0.00 0.00 71 1011.8
20260506192540 85 0 0.0 4.3 0.00 0.00 0.00 72 1011.8
20260506192040 84 0 2.6 4.3 0.00 0.00 0.00 75 1011.7
20260506191550 84 94 1.7 3.5 0.00 0.00 0.00 72 1011.8
20260506191040 84 0 0.9 4.3 0.00 0.00 0.00 75 1011.9
20260506190540 84 94 0.9 4.3 0.00 0.00 0.00 72 1011.9
20260506190053 84 0 0.9 3.5 0.00 0.00 0.00 76 1012.0
20260506185540 83 0 0.0 3.5 0.00 0.00 0.00 77 1011.9
20260506185039 83 0 0.0 4.3 0.00 0.00 0.00 77 1012.0
20260506184556 83 18 0.9 5.2 0.00 0.00 0.00 78 1012.1
20260506184039 82 0 0.0 5.2 0.00 0.00 0.00 78 1012.2
20260506183538 81 76 0.0 1.7 0.00 0.00 0.00 80 1012.2
20260506183049 81 0 0.0 0.9 0.00 0.00 0.00 80 1012.3
20260506182541 81 18 0.0 1.7 0.00 0.00 0.00 81 1012.5
20260506182042 80 0 0.0 1.7 0.00 0.00 0.00 81 1012.7
20260506181600 80 0 0.0 1.7 0.00 0.00 0.00 81 1012.7
20260506181040 81 0 0.0 1.7 0.00 0.00 0.00 81 1012.7
20260506180540 81 29 0.0 1.7 0.00 0.00 0.00 80 1012.8
20260506180046 81 0 0.0 1.7 0.00 0.00 0.00 80 1012.7
20260506175539 81 0 0.0 1.7 0.00 0.00 0.00 79 1012.8
20260506175043 82 0 0.0 3.5 0.00 0.00 0.00 78 1012.8
20260506174604 81 0 0.0 3.5 0.00 0.00 0.00 79 1012.7
20260506174040 81 75 0.0 3.5 0.00 0.00 0.00 80 1012.8
20260506173539 81 78 0.0 3.5 0.00 0.00 0.00 80 1012.8
20260506173056 81 0 0.9 3.5 0.00 0.00 0.00 82 1012.8
20260506172539 81 0 0.0 3.5 0.00 0.00 0.00 81 1012.8
20260506172040 81 0 0.0 3.5 0.00 0.00 0.00 81 1012.8
20260506171547 80 14 0.0 4.3 0.00 0.00 0.00 82 1012.9
20260506171040 80 27 0.9 4.3 0.00 0.00 0.00 81 1012.9
20260506170539 80 0 0.0 0.9 0.00 0.00 0.00 83 1012.9
20260506170050 80 0 0.0 1.7 0.00 0.00 0.00 83 1012.9
20260506165540 79 0 0.0 3.5 0.00 0.00 0.00 84 1013.0
20260506165040 79 32 0.9 3.5 0.00 0.00 0.00 84 1013.0
20260506164547 79 0 0.0 2.6 0.00 0.00 0.00 85 1013.0
20260506164038 79 41 0.0 1.7 0.00 0.00 0.00 85 1013.0
20260506163538 79 8 0.0 2.6 0.00 0.00 0.00 85 1012.8
20260506163103 79 0 0.0 2.6 0.00 0.00 0.00 85 1012.8
20260506162539 79 0 0.9 2.6 0.00 0.00 0.00 85 1012.9
20260506162040 79 47 0.0 2.6 0.00 0.00 0.00 86 1012.9
20260506161549 78 0 0.0 2.6 0.00 0.00 0.00 87 1012.8
20260506161044 78 0 0.9 2.6 0.00 0.00 0.00 87 1012.7
20260506160539 78 0 0.0 1.7 0.00 0.00 0.00 87 1012.7
20260506160051 78 43 0.0 2.6 0.00 0.00 0.00 87 1012.8
20260506155540 78 0 0.0 2.6 0.00 0.00 0.00 87 1012.6
20260506155040 78 55 0.0 2.6 0.00 0.00 0.00 87 1012.6
20260506154553 77 0 0.0 0.0 0.00 0.00 0.00 88 1012.5
20260506154043 77 0 0.0 0.0 0.00 0.00 0.00 88 1012.5
20260506153541 0 0.0 0.0 0.00 0.00 0.00 1012.5
20260506153044 0 0.0 0.0 0.00 0.00 0.00 1012.4
20260506152538 0 0.0 0.0 0.00 0.00 0.00 1012.3
20260506152040 0 0.0 0.0 0.00 0.00 0.00 1012.1
20260506151551 0 0.0 0.0 0.00 0.00 0.00 1012.1
20260506151038 0 0.0 0.0 0.00 0.00 0.00 1012.1
20260506150537 0 0.0 0.0 0.00 0.00 0.00 1012.1
20260506150050 0 0.0 0.0 0.00 0.00 0.00 1012.1
20260506145541 0 0.0 0.0 0.00 0.00 0.00 1012.1
20260506145037 0 0.0 0.0 0.00 0.00 0.00 1012.0
20260506144548 0 0.0 0.0 0.00 0.00 0.00 1012.0
20260506144040 0 0.0 0.0 0.00 0.00 0.00 1011.9
20260506143537 0 0.0 0.0 0.00 0.00 0.00 1011.8
20260506143049 0 0.0 0.0 0.00 0.00 0.00 1011.7
20260506142538 0 0.0 0.0 0.00 0.00 0.00 1011.6
20260506142037 0 0.0 0.0 0.00 0.00 0.00 1011.5
20260506141550 0 0.0 0.0 0.00 0.00 0.00 1011.5
20260506141039 0 0.0 0.0 0.00 0.00 0.00 1011.5
20260506140544 0 0.0 0.0 0.00 0.00 0.00 1011.4
20260506140050 0 0.0 0.0 0.00 0.00 0.00 1011.3
20260506135539 0 0.0 0.0 0.00 0.00 0.00 1011.2
20260506135039 0 0.0 0.0 0.00 0.00 0.00 1011.1
20260506134554 0 0.0 0.0 0.00 0.00 0.00 1010.9
20260506134038 0 0.0 0.0 0.00 0.00 0.00 1010.8
20260506133538 0 0.0 0.0 0.00 0.00 0.00 1010.8
20260506133050 0 0.0 0.0 0.00 0.00 0.00 1010.8
20260506132541 0 0.0 0.0 0.00 0.00 0.00 1010.8
20260506132038 0 0.0 0.0 0.00 0.00 0.00 1010.8
20260506131551 0 0.0 0.0 0.00 0.00 0.00 1010.6
20260506131039 0 0.0 0.0 0.00 0.00 0.00 1010.5
20260506130538 0 0.0 0.0 0.00 0.00 0.00 1010.4
20260506130043 0 0.0 0.0 0.00 0.00 0.00 1010.3
20260506125540 0 0.0 0.0 0.00 0.00 0.00 1010.4
20260506125038 0 0.0 0.0 0.00 0.00 0.00 1010.4
20260506124549 0 0.0 0.0 0.00 0.00 0.00 1010.5
20260506124038 0 0.0 0.0 0.00 0.00 0.00 1010.6
20260506123538 0 0.0 0.0 0.00 0.00 0.00 1010.6
20260506123052 0 0.0 0.0 0.00 0.00 0.00 1010.5
20260506122539 0 0.0 0.0 0.00 0.00 0.00 1010.7
20260506122038 0 0.0 0.0 0.00 0.00 0.00 1010.6
20260506121557 0 0.0 0.0 0.00 0.00 0.00 1010.5
20260506121038 0 0.0 0.0 0.00 0.00 0.00 1010.5
20260506120538 0 0.0 0.0 0.00 0.00 0.00 1010.5
20260506120056 0 0.0 0.0 0.00 0.00 0.00 1010.4
20260506115542 0 0.0 0.0 0.00 0.00 0.00 1010.4
20260506115039 0 0.0 0.0 0.00 0.00 0.00 1010.5
20260506114542 0 0.0 0.0 0.00 0.00 0.00 1010.4
20260506114040 0 0.0 0.0 0.00 0.00 0.00 1010.3
20260506113539 0 0.0 0.0 0.00 0.00 0.00 1010.2
20260506113050 0 0.0 0.0 0.00 0.00 0.00 1010.2
20260506112541 0 0.0 0.0 0.00 0.00 0.00 1010.4
20260506112039 0 0.0 0.0 0.00 0.00 0.00 1010.3
20260506111548 0 0.0 0.0 0.00 0.00 0.00 1010.2
20260506111040 0 0.0 0.0 0.00 0.00 0.00 1010.2
20260506110540 0 0.0 0.0 0.00 0.00 0.00 1010.4
20260506105540 0 0.0 0.0 0.00 0.00 0.00 1010.3
20260506105039 0 0.0 0.0 0.00 0.00 0.00 1010.2
20260506104550 0 0.0 0.0 0.00 0.00 0.00 1010.1
20260506104039 0 0.0 0.0 0.00 0.00 0.00 1010.1
20260506103540 0 0.0 0.0 0.00 0.00 0.00 1010.0
20260506103056 0 0.0 0.0 0.00 0.00 0.00 1010.1
20260506102539 0 0.0 0.0 0.00 0.00 0.00 1010.1
20260506102041 0 0.0 0.0 0.00 0.00 0.00 1009.9
20260506101554 0 0.0 0.0 0.00 0.00 0.00 1010.1
20260506101039 0 0.0 0.0 0.00 0.00 0.00 1010.0
20260506100539 0 0.0 0.0 0.00 0.00 0.00 1009.9
20260506100050 0 0.0 0.0 0.00 0.00 0.00 1010.1
20260506095539 0 0.0 0.0 0.00 0.00 0.00 1010.1
20260506095040 0 0.0 0.0 0.00 0.00 0.00 1010.0
20260506094548 0 0.0 0.0 0.00 0.00 0.00 1010.0
20260506094038 0 0.0 0.0 0.00 0.00 0.00 1010.1
20260506093542 0 0.0 0.0 0.00 0.00 0.00 1009.9
20260506093058 0 0.0 0.0 0.00 0.00 0.00 1010.0
20260506092540 0 0.0 0.0 0.00 0.00 0.00 1010.1
20260506092039 0 0.0 0.0 0.00 0.00 0.00 91 1010.0
20260506091549 0 0.0 0.0 0.00 0.00 0.00 91 1010.0
20260506091039 75 203 0.9 5.2 0.00 0.00 0.00 91 1010.1
20260506090540 75 0 0.9 6.1 0.00 0.00 0.00 90 1010.0
20260506090100 75 0 1.7 6.1 0.00 0.00 0.00 91 1010.0
20260506085539 75 0 0.0 6.1 0.00 0.00 0.00 91 1010.0
20260506085040 75 0 2.6 6.1 0.00 0.00 0.00 91 1010.3
20260506084557 75 208 1.7 5.2 0.00 0.00 0.00 90 1010.2
20260506084039 75 195 0.0 5.2 0.00 0.00 0.00 90 1010.2
20260506083540 75 226 0.9 5.2 0.00 0.00 0.00 91 1010.3
20260506083049 75 203 1.7 4.3 0.00 0.00 0.00 90 1010.4
20260506082540 75 0 0.0 1.7 0.00 0.00 0.00 90 1010.4
20260506082040 76 0 0.0 4.3 0.00 0.00 0.00 90 1010.3
20260506081603 75 0 1.7 4.3 0.00 0.00 0.00 90 1010.4
20260506081043 75 233 1.7 7.0 0.00 0.00 0.00 90 1010.3
20260506080540 75 0 0.9 7.0 0.00 0.00 0.00 90 1010.5
20260506073047 76 174 0.0 5.2 0.00 0.00 0.00 90 1010.4
20260506072539 76 192 0.0 5.2 0.00 0.00 0.00 90 1010.6
20260506072041 76 117 1.7 4.3 0.00 0.00 0.00 90 1010.4
20260506071544 76 198 0.9 7.0 0.00 0.00 0.00 89 1010.6
20260506071044 76 216 0.9 7.0 0.00 0.00 0.00 90 1010.7
20260506070539 76 158 2.6 7.0 0.00 0.00 0.00 90 1010.7
20260506062039 76 215 1.7 7.0 0.00 0.00 0.00 90 1010.6
20260506061550 76 49 2.6 7.0 0.00 0.00 0.00 90 1010.6
20260506061039 76 52 0.9 7.0 0.00 0.00 0.00 90 1010.5
20260506060539 76 31 0.9 8.7 0.00 0.00 0.00 90 1010.6
20260506051037 76 0 0.9 5.2 0.00 0.00 0.00 90 1010.7
20260506050539 76 214 0.9 5.2 0.00 0.00 0.00 89 1010.5
20260506050112 77 165 1.7 5.2 0.00 0.00 0.00 89 1010.3
20260506045039 76 0 0.9 5.2 0.00 0.00 0.00 89 1010.4
20260506044551 77 186 0.9 6.1 0.00 0.00 0.00 89 1010.3
20260506044104 77 215 1.7 7.0 0.00 0.00 0.00 89 1010.4
20260506043539 77 68 2.6 7.0 0.00 0.00 0.00 89 1010.4
20260506043050 77 234 1.7 7.0 0.00 0.00 0.00 89 1010.4
20260506042540 77 212 3.5 7.0 0.00 0.00 0.00 88 1010.4
20260506042042 77 198 2.6 7.8 0.00 0.00 0.00 88 1010.2
20260506041601 77 195 2.6 7.8 0.00 0.00 0.00 88 1010.3
20260506041041 77 86 2.6 7.0 0.00 0.00 0.00 88 1010.2
20260506040539 77 102 0.9 6.1 0.00 0.00 0.00 87 1010.0
20260506040049 78 193 1.7 7.8 0.00 0.00 0.00 87 1010.0
20260506035541 78 89 1.7 7.8 0.00 0.00 0.00 87 1010.1
20260506035039 78 196 1.7 8.7 0.00 0.00 0.00 87 1009.9
20260506034553 78 67 3.5 8.7 0.00 0.00 0.00 87 1010.0
20260506034039 78 203 3.5 7.8 0.00 0.00 0.00 87 1009.9
20260506033539 78 200 1.7 6.1 0.00 0.00 0.00 86 1009.7
20260506033047 79 138 2.6 6.1 0.00 0.00 0.00 86 1009.8
20260506032543 79 63 2.6 7.8 0.00 0.00 0.00 86 1009.7
20260506032039 79 183 2.6 7.8 0.00 0.00 0.00 85 1009.7
20260506031549 79 94 2.6 8.7 0.00 0.00 0.00 85 1009.8
20260506031040 79 178 1.7 8.7 0.00 0.00 0.00 85 1009.7
20260506030545 80 120 1.7 8.7 0.00 0.00 0.00 84 1009.5
20260506030050 80 157 0.9 5.2 0.00 0.00 0.00 84 1009.6
20260506025539 80 45 0.9 7.0 0.00 0.00 0.00 84 1009.5
20260506025039 80 176 1.7 7.8 0.00 0.00 0.00 84 1009.3
20260506024606 80 106 1.7 7.8 0.00 0.00 0.00 84 1009.3
20260506024040 80 34 2.6 9.6 0.00 0.00 0.00 83 1009.1
20260506023540 81 58 1.7 9.6 0.00 0.00 0.00 83 1009.0
20260506023107 81 181 1.7 6.1 0.00 0.00 0.00 82 1009.0
20260506022539 81 0 0.9 6.1 0.00 0.00 0.00 82 1009.0
20260506022041 82 136 0.9 5.2 0.00 0.00 0.00 81 1008.9
20260506021552 82 0 0.9 8.7 0.00 0.00 0.00 81 1008.9
20260506021038 82 176 0.9 8.7 0.00 0.00 0.00 80 1008.9
20260506020539 82 0 0.9 6.1 0.00 0.00 0.00 80 1008.8
20260506020056 82 40 0.9 6.1 0.00 0.00 0.00 79 1008.5
20260506015540 82 77 0.9 9.6 0.00 0.00 0.00 79 1008.5
20260506015040 83 0 1.7 10.4 0.00 0.00 0.00 78 1008.5
20260506014555 83 184 1.7 10.4 0.00 0.00 0.00 77 1008.3
20260506014041 83 50 2.6 7.0 0.00 0.00 0.00 77 1008.2
20260506013538 83 37 2.6 7.0 0.00 0.00 0.00 76 1008.2
20260506013054 84 32 1.7 7.0 0.00 0.00 0.00 75 1008.1
20260506012541 84 41 0.9 5.2 0.00 0.00 0.00 75 1008.0
20260506012041 84 62 0.9 5.2 0.00 0.00 0.00 75 1007.9
20260506011548 84 37 0.9 7.8 0.00 0.00 0.00 75 1007.9
20260506011039 84 42 2.6 7.8 0.00 0.00 0.00 75 1007.8
20260506010540 84 30 1.7 6.1 0.00 0.00 0.00 74 1007.7
20260506010048 84 0 1.7 6.1 0.00 0.00 0.00 74 1007.7
20260506005540 85 133 0.9 5.2 0.00 0.00 0.00 74 1007.7
20260506005039 85 73 1.7 5.2 0.00 0.00 0.00 73 1007.6
20260506004557 85 181 0.0 4.3 0.00 0.00 0.00 72 1007.4
20260506004039 85 0 0.9 5.2 0.00 0.00 0.00 72 1007.5
20260506003538 85 0 0.9 5.2 0.00 0.00 0.00 72 1007.5
20260506003050 85 42 1.7 5.2 0.00 0.00 0.00 71 1007.6
20260506002539 86 136 1.7 4.3 0.00 0.00 0.00 71 1007.6
20260506002037 86 61 0.9 4.3 0.00 0.00 0.00 70 1007.5